Location: Newark
(48.9320°N, 2.2664°E)
Time: 11:20:32
(UTC+00:00)

Vanguard 1 Rocket - Pass Details

Date: 27 February 2020
Orbit: 650 x 4226 km, 34.3° (Epoch: 05 April)

Event Time Altitude Azimuth Distance (km) Brightness Sun altitude
Rises 02:10:55 0° 243° (WSW) 5,349 - -41.7°
Reaches altitude 10° 02:15:52 10° 231° (SW) 3,713 - -41.1°
Maximum altitude 02:22:15 23° 184° (S) 2,122 - -40.3°
Drops below altitude 10° 02:26:39 10° 132° (SE) 2,453 - -39.8°
Exits shadow 02:28:59 - 117° (ESE) 3,116 10.4 -39.5°
Sets 02:29:10 0° 116° (ESE) 3,174 10.4 -39.5°
